Regional Weather Roundup
Issued by NWS

Home | Current Version | Previous Version | Text Only | Print | Product List | Glossary On
Versions: 1 2 3 4 5 6 7 8 9 10 11 12 13 14 15 16 17 18 19 20 21 22 23 24 25 26 27 28 29 30 31 32 33 34 35 36 37 38 39 40 41 42 43 44 45 46 47 48 49 50
000
ASUS43 KDTX 290010
RWRMI
MICHIGAN HOURLY REGIONAL WEATHER ROUNDUP
NATIONAL WEATHER SERVICE DETROIT/PONTIAC MI
800 PM EDT THU MAY 28 2015

NOTE: "FAIR" INDICATES FEW OR NO CLOUDS BELOW 12,000 FEET WITH NO
SIGNIFICANT WEATHER AND/OR OBSTRUCTION TO VISIBILITY.

MIZ047>049-052>055-059>063-066>070-074>076-081>083-290100-
SOUTHEAST LOWER MICHIGAN

CITY           SKY/WX    TMP DP  RH WIND       PRES   REMARKS
ADRIAN         CLEAR     74  50  42 SE9       30.20F
6HR MIN TEMP:  74; 6HR MAX TEMP:  78;

ALMA           MOSUNNY   77  56  48 S5        30.17S
ANN ARBOR      CLEAR     72  54  53 SE6       30.21S
BAD AXE        CLOUDY    74  57  56 S10       30.20R
CARO           PTCLDY    77  58  52 S8        30.18R
DETROIT CITY   PTCLDY    72  50  45 E6        30.22R
6HR MIN TEMP:  72; 6HR MAX TEMP:  76;

DETROIT        PTCLDY    75  53  46 E6        30.22S
6HR MIN TEMP:  74; 6HR MAX TEMP:  77;

FLINT          CLEAR     75  56  51 S9        30.19F
6HR MIN TEMP:  75; 6HR MAX TEMP:  83;

GROSSE ILE     CLEAR     70  61  73 CALM      30.21S
HILLSDALE      CLEAR     76  54  45 E8        30.20S
HOWELL         CLEAR     74  54  49 SE9       30.20F
6HR MIN TEMP:  74; 6HR MAX TEMP:  79;


CITY           SKY/WX    TMP DP  RH WIND       PRES   REMARKS
JACKSON        CLEAR     74  55  51 SE9       30.20S
6HR MIN TEMP:  74; 6HR MAX TEMP:  79;

LAMBERTVILLE   CLEAR     70  54  56 E5        30.21R
LANSING        SUNNY     77  55  46 SE14      30.19S
6HR MIN TEMP:  76; 6HR MAX TEMP:  80;

LAPEER         FAIR      74  54  49 S7        30.21R
MASON          SUNNY     72  57  60 SE6       30.19S
MONROE         CLEAR     70  52  52 E3        30.20S
MT. CLEMENS    PTCLDY    69  55  61 E6        30.20S
6HR MIN TEMP:  69; 6HR MAX TEMP:  75;

PONTIAC        PTCLDY    75  53  46 SE7       30.20F
6HR MIN TEMP:  74; 6HR MAX TEMP:  79;

PORT HOPE        N/A     70  56  61 S7        30.18S
6HR MIN TEMP:  64; 6HR MAX TEMP:  74;

PORT HURON     PTCLDY    72  55  56 S3        30.23S
TRI CITIES     SUNNY     80  56  43 S9        30.18R
6HR MIN TEMP:  79; 6HR MAX TEMP:  83;

MIDLAND        FAIR      79  56  45 S6        30.16S
TROY           CLEAR     78  50  37 SE5       30.24R
SAGINAW HB     CLEAR     79  54  41 S9        30.17S
$$
MIZ043>046-050>051-056>058-064>065-071>073-077>080-290100-
SOUTHWEST LOWER MICHIGAN

CITY           SKY/WX    TMP DP  RH WIND       PRES   REMARKS
BATTLE CREEK   SUNNY     78  56  46 SE8       30.18S
6HR MIN TEMP:  78; 6HR MAX TEMP:  81;

BENTON HARBOR  SUNNY     78  56  46 SE9       30.13S
6HR MIN TEMP:  77; 6HR MAX TEMP:  82;

BIG RAPIDS     MOSUNNY   76  53  44 W6        30.16S
6HR MIN TEMP:  76; 6HR MAX TEMP:  80;

COLDWATER      SUNNY     74  53  47 SE7       30.17F
6HR MIN TEMP:  74; 6HR MAX TEMP:  77;

FREMONT        FAIR      76  54  46 SW7       30.15S
HOLLAND        SUNNY     77  60  55 CALM      30.15F
6HR MIN TEMP:  76; 6HR MAX TEMP:  81;

GRAND RAPIDS   MOSUNNY   77  56  48 S6        30.16S
6HR MIN TEMP:  77; 6HR MAX TEMP:  81;

IONIA          FAIR      80  51  36 S8        30.16S
KALAMAZOO      SUNNY     78  55  44 SE6       30.16F
6HR MIN TEMP:  77; 6HR MAX TEMP:  81;

LUDINGTON      SUNNY     76  61  59 SW6       30.15F
6HR MIN TEMP:  71; 6HR MAX TEMP:  78;

MARSHALL       SUNNY     76  56  48 SE5       30.17S
MOUNT PLEASANT MOSUNNY   78  56  47 S6        30.16S
6HR MIN TEMP:  78; 6HR MAX TEMP:  83;

MUSKEGON       MOSUNNY   75  59  57 N3        30.15F
6HR MIN TEMP:  74; 6HR MAX TEMP:  78;

SOUTH HAVEN    SUNNY     79  52  38 SE3       30.14S
$$
MIZ016>042-290100-
NORTHERN LOWER MICHIGAN

CITY           SKY/WX    TMP DP  RH WIND       PRES   REMARKS
ALPENA         PTSUNNY   65  55  70 E10       30.17S
6HR MIN TEMP:  65; 6HR MAX TEMP:  75;

BEAVER ISLAND  PTSUNNY   64  55  72 CALM      30.14F
6HR MIN TEMP:  59; 6HR MAX TEMP:  72;

BELLAIRE       MOSUNNY   71  58  63 S3        30.14S
6HR MIN TEMP:  71; 6HR MAX TEMP:  83;

CADILLAC       PTSUNNY   76  59  56 SW8       30.16S
CHARLEVOIX     MOSUNNY   62  54  74 CALM      30.18R
6HR MIN TEMP:  61; 6HR MAX TEMP:  66;

FRANKFORT      SUNNY     73  53  49 SW5       30.14F
GAYLORD        MOSUNNY   77  59  53 VRB5      30.15S
6HR MIN TEMP:  77; 6HR MAX TEMP:  82;

GRAYLING       PTSUNNY   76  57  51 W6        30.17R
6HR MIN TEMP:  76; 6HR MAX TEMP:  85;

HARBOR SPRINGS PTSUNNY   53  49  87 SW5       30.16R
HOUGHTON LAKE  CLOUDY    76  59  55 SW6       30.17R
6HR MIN TEMP:  76; 6HR MAX TEMP:  82;

MANISTEE       SUNNY     73  54  49 SW9       30.15F
OSCODA         PTCLDY    66  55  66 SE3       30.18R
PELLSTON       PTSUNNY   71  58  63 E7        30.15S
6HR MIN TEMP:  71; 6HR MAX TEMP:  80;

ROGERS CITY    SUNNY     57  51  80 CALM      30.17S
TRAVERSE CITY  MOSUNNY   61  53  75 E5        30.13F
6HR MIN TEMP:  61; 6HR MAX TEMP:  76;

$$
MIZ007>008-015-290100-
EASTERN UPPER MICHIGAN

CITY           SKY/WX    TMP DP  RH WIND       PRES   REMARKS
KINROSS        MOSUNNY   66  57  72 SE13      30.16S
6HR MIN TEMP:  66; 6HR MAX TEMP:  75;

MACKINAC ISLAN MOSUNNY   49  45  84 E13G21    30.15F
6HR MIN TEMP:  49; 6HR MAX TEMP:  65;

NEWBERRY       PTSUNNY   67  56  69 S7        30.13S
S. S. MARIE    MOSUNNY   66  55  67 SE10      30.16R
6HR MIN TEMP:  66; 6HR MAX TEMP:  73;

MUNISING         N/A     72  57  59 S8        30.06S
6HR MIN TEMP:  48; 6HR MAX TEMP:  78;

$$
MIZ004>006-011>014-085-290100-
CENTRAL UPPER MICHIGAN

CITY           SKY/WX    TMP DP  RH WIND       PRES   REMARKS
MANISTIQUE     PTSUNNY   55  50  86 SE12      30.13R
6HR MIN TEMP:  55; 6HR MAX TEMP:  60;

ESCANABA       SUNNY     54  48  82 E7        30.09R
6HR MIN TEMP:  54; 6HR MAX TEMP:  64;

MENOMINEE      SUNNY     75  57  53 S12       30.06S
6HR MIN TEMP:  64; 6HR MAX TEMP:  77;

SAWYER-GWINN   MOSUNNY   70  57  64 S14       30.07F
$$
MIZ001>003-009>011-084-290100-
WESTERN UPPER MICHIGAN

CITY           SKY/WX    TMP DP  RH WIND       PRES   REMARKS
IRON MOUNTAIN  LGT RAIN  70  62  76 SE8       30.04S
6HR MIN TEMP:  65; 6HR MAX TEMP:  80; 6HR PCP:  0.11;

HOUGHTON       CLOUDY    54  52  93 NE6       30.00F
6HR MIN TEMP:  47; 6HR MAX TEMP:  55; 6HR PCP:  0.19;

COPPER HARBOR    N/A     54  48  80 SW10G22   29.99F
6HR MIN TEMP:  52; 6HR MAX TEMP:  59;

IRONWOOD       MOSUNNY   79  48  34 SW12G18   29.93S
6HR MIN TEMP:  63; 6HR MAX TEMP:  82;

$$

ABBREVIATIONS USED IN REMARKS
   TC - TEMPERATURE IN CELSIUS
  WCI - WIND CHILL INDEX
   HX - HEAT INDEX
  VSB - VISIBILITY



USA.gov is the U.S. government's official web portal to all federal, state and local government web resources and services.